Location: Shepherdstown, WV
(39.4326°N, 77.8042°W)
Time: 06:07:05
(UTC-04:00)

SR - Pass Details

Date: 02 August 2021
Orbit: 581 x 874 km, 66.7° (Epoch: 24 September)

Event Time Altitude Azimuth Distance (km) Brightness Sun altitude
Rises 15:56:31 0° 330° (NNW) 3,066 ? 49.2°
Reaches altitude 10° 15:58:56 10° 330° (NNW) 2,099 ? 48.8°
Maximum altitude 16:03:40 86° 242° (WSW) 638 ? 48.0°
Drops below altitude 10° 16:08:01 10° 154° (SSE) 1,942 ? 47.2°
Sets 16:10:11 0° 154° (SSE) 2,817 ? 46.8°
